Retour au catalogue

ONEWEB-0121

ActifCommunicationsPO
NORAD 47267·PAYLOAD·🇬🇧 United Kingdom

Lancé Dec 18, 2020 depuis Vostochny Cosmodrome

Loading…

Prochains Passages (prochaines 24 heures)

TLE

FraisSource: CelesTrak SupGP

Époque: Sep 14, 2026, 19:36 UTC

1 47267C 20100K   26257.81685602 -.00002363  00000+0 -65748-2 0  2571
2 47267  87.8997 332.8672 0002208  99.4686   0.7849 13.12449600    10

Suivez ONEWEB-0121 en temps réel avec AllMySat

Download on the App Store